Lago Vista, TX

10:35 PM CDT on May 28, 2017 (GMT -0500)
Lago Vista

Weather History for KRYW - May, 2014

Change the Weather History Date:

Wednesday, May 14, 2014

  Actual Average (KGTU) Record (KGTU)
Temperature  
Mean Temperature 61 °F -  
Max Temperature 72 °F 83 °F 95 °F (2003)
Min Temperature 50 °F 63 °F 50 °F (2014)
Degree Days  
Heating Degree Days 4    
Growing Degree Days 11 (Base 50)    
Moisture  
Dew Point 41 °F    
Average Humidity 54    
Maximum Humidity 93    
Minimum Humidity 23    
Precipitation  
Precipitation 0.00 in - - ()
Sea Level Pressure  
Sea Level Pressure 30.25 in    
Wind  
Wind Speed 9 mph (North)    
Max Wind Speed 16 mph    
Max Gust Speed 33 mph    
Visibility 10 miles    
Events Rain , Thunderstorm    
Averages and records for this station are not official NWS values.
T = Trace of Precipitation, MM = Missing Value Source: NWS Daily Summary

Daily Weather History Graph

Daily Weather History Graph

Search for Another Location

Airport or City:

Trip Planner

Search our weather history database for the weather conditions in past years. The results will help you decide how hot, cold, wet, or windy it might be!

Date:

Astronomy

May. 14, 2014 Rise Set
Actual Time 6:38 AM CDT 8:18 PM CDT
Civil Twilight 6:11 AM CDT 8:45 PM CDT
Nautical Twilight 5:40 AM CDT 9:16 PM CDT
Astronomical Twilight 5:07 AM CDT 9:49 PM CDT
Moon 8:27 PM CDT (5/14) 6:34 AM CDT (5/14)
Length of Visible Light 14h 33m
Length of Day
13h 40m
Full, 100% of the Moon is Illuminated
May 14
Full
May 14
Full
May 21
Last Quarter
May 28
New
Jun 5
First Quarter

Hourly Weather History & Observations

Time (CDT) Temp. Dew Point Humidity Pressure Visibility Wind Dir Wind Speed Gust Speed Precip Events Conditions
12:15 AM 54.5 °F 50.2 °F 85% 30.26 in 10.0 mi NNW 8.1 mph - N/A Rain Light Rain
12:35 AM 54.5 °F 50.0 °F 85% 30.27 in 10.0 mi NNW 9.2 mph - N/A Rain , Thunderstorm Light Thunderstorms and Rain
1:15 AM 52.7 °F 50.2 °F 91% 30.26 in 10.0 mi NNW 10.4 mph - N/A Rain Light Rain
1:35 AM 52.3 °F 50.0 °F 92% 30.25 in 10.0 mi North 12.7 mph 18.4 mph N/A Rain Light Rain
1:55 AM 52.3 °F 50.0 °F 92% 30.25 in 10.0 mi North 9.2 mph 19.6 mph N/A Rain Light Rain
2:15 AM 52.3 °F 50.0 °F 92% 30.25 in 10.0 mi NNW 11.5 mph 18.4 mph N/A Rain Light Rain
2:35 AM 52.5 °F 50.0 °F 91% 30.26 in 7.0 mi North 9.2 mph - N/A Rain Rain
2:55 AM 52.7 °F 50.4 °F 92% 30.25 in 7.0 mi North 5.8 mph 18.4 mph N/A Rain Rain
3:15 AM 52.7 °F 50.4 °F 92% 30.23 in 10.0 mi North 11.5 mph 17.3 mph N/A Rain Rain
3:35 AM 52.3 °F 50.4 °F 93% 30.24 in 10.0 mi North 5.8 mph - N/A Rain Rain
3:55 AM 52.3 °F 50.4 °F 93% 30.25 in 10.0 mi NNW 4.6 mph - N/A Rain Light Rain
4:15 AM 52.3 °F 50.4 °F 93% 30.25 in 10.0 mi North 5.8 mph - N/A   Overcast
4:35 AM 52.2 °F 50.2 °F 93% 30.25 in 10.0 mi NNW 6.9 mph - N/A Rain Light Rain
4:55 AM 51.8 °F 49.6 °F 92% 30.25 in 10.0 mi NNW 8.1 mph - N/A   Light Drizzle
5:15 AM 51.4 °F 49.3 °F 92% 30.26 in 10.0 mi NNW 5.8 mph - N/A   Mostly Cloudy
5:35 AM 50.9 °F 48.6 °F 92% 30.26 in 10.0 mi NNW 6.9 mph - N/A   Scattered Clouds
6:15 AM 50.2 °F 48.0 °F 92% 30.26 in 10.0 mi North 8.1 mph - N/A   Clear
6:35 AM 50.0 °F 47.7 °F 92% 30.27 in 10.0 mi NNW 6.9 mph - N/A   Clear
6:55 AM 50.0 °F 47.5 °F 91% 30.27 in 10.0 mi NNW 5.8 mph - N/A   Clear
7:15 AM 50.0 °F 47.7 °F 92% 30.27 in 10.0 mi NNW 8.1 mph - N/A   Clear
7:35 AM 50.5 °F 48.0 °F 91% 30.27 in 10.0 mi NNW 8.1 mph - N/A   Clear
7:55 AM 51.6 °F 48.2 °F 88% 30.28 in 10.0 mi NNW 6.9 mph - N/A   Clear
8:15 AM 52.7 °F 48.6 °F 86% 30.28 in 10.0 mi NNW 6.9 mph - N/A   Clear
8:35 AM 54.1 °F 49.3 °F 84% 30.28 in 10.0 mi NW 8.1 mph - N/A   Clear
8:55 AM 55.4 °F 49.3 °F 80% 30.29 in 10.0 mi NW 11.5 mph 17.3 mph N/A   Clear
9:35 AM 58.6 °F 49.1 °F 71% 30.29 in 10.0 mi NNW 5.8 mph 17.3 mph N/A   Clear
9:55 AM 60.3 °F 48.4 °F 65% 30.30 in 10.0 mi NNW 5.8 mph 19.6 mph N/A   Clear
10:15 AM 61.5 °F 47.1 °F 59% 30.30 in 10.0 mi North 8.1 mph 18.4 mph N/A   Clear
10:35 AM 62.6 °F 44.4 °F 51% 30.30 in 10.0 mi NNW 11.5 mph 19.6 mph N/A   Clear
10:55 AM 64.2 °F 45.1 °F 50% 30.30 in 10.0 mi North 10.4 mph 20.7 mph N/A   Clear
11:15 AM 65.1 °F 43.9 °F 46% 30.30 in 10.0 mi North 12.7 mph 23.0 mph N/A   Clear
11:55 AM 67.3 °F 40.1 °F 37% 30.28 in 10.0 mi North 16.1 mph 26.5 mph N/A   Scattered Clouds
12:15 PM 65.7 °F 39.4 °F 38% 30.28 in 10.0 mi North 12.7 mph 26.5 mph N/A   Scattered Clouds
12:35 PM 67.8 °F 39.7 °F 36% 30.28 in 10.0 mi NW 13.8 mph 29.9 mph N/A   Mostly Cloudy
12:55 PM 68.4 °F 40.8 °F 37% 30.28 in 10.0 mi NNW 13.8 mph 24.2 mph N/A   Scattered Clouds
1:15 PM 69.3 °F 38.3 °F 32% 30.27 in 10.0 mi North 6.9 mph 23.0 mph N/A   Mostly Cloudy
1:35 PM 68.9 °F 36.7 °F 31% 30.26 in 10.0 mi NW 15.0 mph 24.2 mph N/A   Mostly Cloudy
1:55 PM 70.5 °F 34.0 °F 26% 30.26 in 10.0 mi NW 10.4 mph 20.7 mph N/A   Scattered Clouds
2:15 PM 70.7 °F 32.4 °F 24% 30.26 in 10.0 mi North 13.8 mph 25.3 mph N/A   Clear
2:35 PM 70.0 °F 31.8 °F 24% 30.25 in 10.0 mi NNW 12.7 mph 33.4 mph N/A   Clear
2:55 PM 71.4 °F 33.8 °F 25% 30.25 in 10.0 mi NNW 10.4 mph 21.9 mph N/A   Clear
3:15 PM 72.1 °F 32.5 °F 23% 30.24 in 10.0 mi North 11.5 mph 21.9 mph N/A   Clear
3:35 PM 71.6 °F 32.4 °F 24% 30.24 in 10.0 mi North 10.4 mph 27.6 mph N/A   Clear
3:55 PM 72.5 °F 34.0 °F 24% 30.23 in 10.0 mi NNW 13.8 mph 24.2 mph N/A   Clear
4:15 PM 71.8 °F 34.3 °F 25% 30.22 in 10.0 mi NNW 12.7 mph 26.5 mph N/A   Clear
4:35 PM 72.0 °F 33.8 °F 25% 30.22 in 10.0 mi North 8.1 mph 25.3 mph N/A   Clear
4:55 PM 72.5 °F 34.2 °F 25% 30.22 in 10.0 mi North 12.7 mph 19.6 mph N/A   Scattered Clouds
5:15 PM 72.7 °F 32.9 °F 23% 30.21 in 10.0 mi North 11.5 mph 21.9 mph N/A   Clear
5:35 PM 72.3 °F 33.1 °F 24% 30.21 in 10.0 mi North 12.7 mph 20.7 mph N/A   Clear
5:55 PM 72.0 °F 33.4 °F 24% 30.21 in 10.0 mi North 11.5 mph 21.9 mph N/A   Scattered Clouds
6:15 PM 71.8 °F 33.3 °F 24% 30.20 in 10.0 mi North 9.2 mph 19.6 mph N/A   Scattered Clouds
6:35 PM 71.1 °F 32.4 °F 24% 30.21 in 10.0 mi North 6.9 mph 17.3 mph N/A   Clear
6:55 PM 70.7 °F 32.4 °F 24% 30.21 in 10.0 mi North - - N/A   Clear
7:15 PM 69.8 °F 32.5 °F 25% 30.20 in 10.0 mi North 6.9 mph - N/A   Clear
7:35 PM 68.9 °F 32.7 °F 26% 30.20 in 10.0 mi North 4.6 mph - N/A   Clear
7:55 PM 67.3 °F 33.4 °F 29% 30.20 in 10.0 mi North 4.6 mph - N/A   Clear
8:15 PM 65.3 °F 34.2 °F 31% 30.21 in 10.0 mi North 4.6 mph - N/A   Clear
8:35 PM 63.5 °F 35.1 °F 35% 30.22 in 10.0 mi North 4.6 mph - N/A   Clear
8:55 PM 62.6 °F 35.1 °F 36% 30.22 in 10.0 mi North 5.8 mph - N/A   Clear
9:15 PM 62.1 °F 35.2 °F 37% 30.23 in 10.0 mi North 5.8 mph - N/A   Clear
9:35 PM 61.9 °F 34.7 °F 36% 30.24 in 10.0 mi North 5.8 mph - N/A   Clear
9:55 PM 62.6 °F 33.8 °F 34% 30.25 in 10.0 mi NNE 6.9 mph - N/A   Clear
10:15 PM 61.9 °F 34.0 °F 35% 30.25 in 10.0 mi NNE 5.8 mph - N/A   Clear
10:35 PM 61.9 °F 33.8 °F 35% 30.25 in 10.0 mi NNE 5.8 mph - N/A   Clear
10:55 PM 62.2 °F 33.4 °F 34% 30.26 in 10.0 mi NNE 5.8 mph - N/A   Clear
11:15 PM 62.6 °F 32.9 °F 33% 30.26 in 10.0 mi NNE 5.8 mph - N/A   Clear
11:35 PM 62.2 °F 32.9 °F 33% 30.27 in 10.0 mi NNE 5.8 mph - N/A   Clear
11:55 PM 60.6 °F 35.1 °F 38% 30.27 in 10.0 mi NNE 3.5 mph - N/A   Clear